Lafayette, CO

12:12 PM MST on February 26, 2017 (GMT -0700)
Erie Municipal Airport

Weather History for KEIK - March, 2013

Change the Weather History Date:

Friday, March 15, 2013

  Actual Average (KBJC) Record (KBJC)
Temperature  
Mean Temperature 61 °F -  
Max Temperature 77 °F 51 °F 77 °F (2013)
Min Temperature 45 °F 30 °F 14 °F (1997)
Degree Days  
Heating Degree Days 4    
Growing Degree Days 11 (Base 50)    
Moisture  
Dew Point 20 °F    
Average Humidity 21    
Maximum Humidity 60    
Minimum Humidity 9    
Precipitation  
Precipitation 0.00 in - - ()
Sea Level Pressure  
Sea Level Pressure 29.96 in    
Wind  
Wind Speed 8 mph (WSW)    
Max Wind Speed 21 mph    
Max Gust Speed 29 mph    
Visibility 10 miles    
Events      
Averages and records for this station are not official NWS values.
T = Trace of Precipitation, MM = Missing Value Source: NWS Daily Summary

Daily Weather History Graph

Daily Weather History Graph

Search for Another Location

Airport or City:

Trip Planner

Search our weather history database for the weather conditions in past years. The results will help you decide how hot, cold, wet, or windy it might be!

Date:

Astronomy

Mar. 15, 2013 Rise Set
Actual Time 7:11 AM MDT 7:07 PM MDT
Civil Twilight 6:44 AM MDT 7:34 PM MDT
Nautical Twilight 6:12 AM MDT 8:05 PM MDT
Astronomical Twilight 5:40 AM MDT 8:37 PM MDT
Moon 9:03 AM MDT (3/15) 11:23 PM MDT (3/15)
Length of Visible Light 12h 50m
Length of Day
11h 56m
Waxing Crescent, 16% of the Moon is Illuminated
Mar 15
Waxing Crescent
Mar 19
First Quarter
Mar 27
Full
Apr 2
Last Quarter
Apr 10
New

Hourly Weather History & Observations

Time (MDT) Temp. Windchill Dew Point Humidity Pressure Visibility Wind Dir Wind Speed Gust Speed Precip Events Conditions
12:16 AM 45.3 °F 41.6 °F 32.0 °F 60% 30.12 in 10.0 mi SSW 6.9 mph - N/A   Clear
12:36 AM 46.6 °F - 30.2 °F 53% 30.11 in 10.0 mi East 4.6 mph - N/A   Clear
12:56 AM 51.1 °F - 27.3 °F 40% 30.11 in 10.0 mi West 6.9 mph - N/A   Clear
1:16 AM 58.5 °F - 20.8 °F 23% 30.10 in 10.0 mi WSW 6.9 mph - N/A   Clear
1:36 AM 58.5 °F - 20.5 °F 23% 30.10 in 10.0 mi WSW 6.9 mph - N/A   Clear
1:56 AM 59.2 °F - 20.3 °F 22% 30.09 in 10.0 mi WNW 6.9 mph - N/A   Clear
2:16 AM 58.1 °F - 21.9 °F 25% 30.08 in 10.0 mi WNW 5.8 mph - N/A   Clear
2:36 AM 57.6 °F - 21.9 °F 25% 30.07 in 10.0 mi West 8.1 mph - N/A   Clear
2:56 AM 57.6 °F - 22.5 °F 26% 30.06 in 10.0 mi WNW 11.5 mph 17.3 mph N/A   Clear
3:16 AM 59.2 °F - 22.6 °F 25% 30.06 in 10.0 mi West 6.9 mph - N/A   Clear
3:36 AM 60.1 °F - 21.0 °F 22% 30.05 in 10.0 mi West 11.5 mph - N/A   Clear
3:56 AM 59.7 °F - 21.9 °F 23% 30.03 in 10.0 mi West 9.2 mph - N/A   Clear
4:16 AM 58.5 °F - 21.6 °F 24% 30.01 in 10.0 mi WSW 4.6 mph - N/A   Clear
4:36 AM 55.8 °F - 23.7 °F 29% 30.01 in 10.0 mi Calm Calm - N/A   Clear
4:56 AM 56.3 °F - 23.9 °F 29% 30.01 in 10.0 mi South 6.9 mph - N/A   Clear
5:16 AM 60.3 °F - 19.8 °F 21% 30.01 in 10.0 mi SW 5.8 mph - N/A   Clear
5:36 AM 62.2 °F - 19.0 °F 19% 30.02 in 10.0 mi WSW 9.2 mph - N/A   Clear
5:56 AM 61.7 °F - 19.0 °F 19% 30.02 in 10.0 mi SW 16.1 mph 19.6 mph N/A   Clear
6:16 AM 61.7 °F - 18.1 °F 19% 30.01 in 10.0 mi West 15.0 mph 20.7 mph N/A   Clear
6:36 AM 59.4 °F - 19.8 °F 22% 30.01 in 10.0 mi West 9.2 mph - N/A   Clear
6:56 AM 60.3 °F - 19.6 °F 21% 30.00 in 10.0 mi WSW 12.7 mph 20.7 mph N/A   Clear
7:16 AM 58.6 °F - 20.1 °F 22% 30.00 in 10.0 mi WSW 8.1 mph - N/A   Clear
7:36 AM 58.5 °F - 19.6 °F 22% 30.01 in 10.0 mi West 12.7 mph 18.4 mph N/A   Clear
7:56 AM 61.2 °F - 17.4 °F 18% 30.01 in 10.0 mi West 12.7 mph 23.0 mph N/A   Clear
8:16 AM 60.3 °F - 18.9 °F 20% 30.00 in 10.0 mi WSW 11.5 mph 17.3 mph N/A   Clear
8:36 AM 61.7 °F - 18.0 °F 18% 30.00 in 10.0 mi West 12.7 mph - N/A   Clear
8:56 AM 64.2 °F - 19.2 °F 18% 30.00 in 10.0 mi SW 11.5 mph 17.3 mph N/A   Clear
9:16 AM 63.9 °F - 20.1 °F 19% 30.00 in 10.0 mi SSW 8.1 mph - N/A   Clear
9:36 AM 64.6 °F - 18.1 °F 17% 29.99 in 10.0 mi WSW 6.9 mph - N/A   Clear
9:56 AM 68.0 °F - 18.3 °F 15% 29.99 in 10.0 mi SSW 10.4 mph - N/A   Clear
10:16 AM 69.8 °F - 17.1 °F 13% 29.98 in 10.0 mi SW 5.8 mph - N/A   Clear
10:36 AM 69.8 °F - 14.7 °F 12% 29.97 in 10.0 mi SW 6.9 mph 16.1 mph N/A   Clear
10:56 AM 70.5 °F - 15.4 °F 12% 29.96 in 10.0 mi SSW 5.8 mph - N/A   Clear
11:16 AM 70.7 °F - 16.0 °F 12% 29.95 in 10.0 mi SE 5.8 mph - N/A   Clear
11:36 AM 70.0 °F - 16.3 °F 13% 29.94 in 10.0 mi South 6.9 mph - N/A   Clear
11:56 AM 69.8 °F - 16.3 °F 13% 29.93 in 10.0 mi South 8.1 mph - N/A   Clear
12:16 PM 71.2 °F - 16.2 °F 12% 29.93 in 10.0 mi Calm Calm - N/A   Clear
12:36 PM 71.8 °F - 17.1 °F 12% 29.93 in 10.0 mi SSE 5.8 mph - N/A   Clear
12:56 PM 74.1 °F - 16.9 °F 11% 29.92 in 10.0 mi ESE 9.2 mph 18.4 mph N/A   Clear
1:16 PM 74.3 °F - 15.3 °F 11% 29.92 in 10.0 mi NNE 3.5 mph - N/A   Clear
1:36 PM 76.5 °F - 15.1 °F 10% 29.90 in 10.0 mi West 16.1 mph 24.2 mph N/A   Clear
1:56 PM 77.0 °F - 14.4 °F 9% 29.89 in 10.0 mi West 13.8 mph 25.3 mph N/A   Clear
2:16 PM 73.8 °F - 14.9 °F 11% 29.89 in 10.0 mi North 3.5 mph - N/A   Clear
2:36 PM 75.7 °F - 15.3 °F 10% 29.89 in 10.0 mi WNW 13.8 mph 28.8 mph N/A   Clear
2:56 PM 75.7 °F - 15.1 °F 10% 29.88 in 10.0 mi WNW 20.7 mph 28.8 mph N/A   Clear
3:16 PM 75.4 °F - 14.0 °F 10% 29.87 in 10.0 mi West 8.1 mph 23.0 mph N/A   Clear
3:36 PM 75.6 °F - 14.4 °F 10% 29.87 in 10.0 mi WNW 16.1 mph 26.5 mph N/A   Clear
3:56 PM 74.5 °F - 16.0 °F 11% 29.87 in 10.0 mi West 19.6 mph 27.6 mph N/A   Clear
4:16 PM 73.8 °F - 15.8 °F 11% 29.87 in 10.0 mi West 17.3 mph 21.9 mph N/A   Clear
4:36 PM 73.8 °F - 15.8 °F 11% 29.88 in 10.0 mi West 12.7 mph 23.0 mph N/A   Clear
4:56 PM 72.1 °F - 16.3 °F 12% 29.87 in 10.0 mi West 17.3 mph 27.6 mph N/A   Clear
5:16 PM 71.2 °F - 17.8 °F 13% 29.87 in 10.0 mi West 13.8 mph 19.6 mph N/A   Clear
5:36 PM 70.7 °F - 17.1 °F 13% 29.87 in 10.0 mi West 6.9 mph - N/A   Clear
5:56 PM 69.4 °F - 18.3 °F 14% 29.87 in 10.0 mi West 5.8 mph - N/A   Clear
6:16 PM 68.9 °F - 18.9 °F 15% 29.87 in 10.0 mi West 6.9 mph - N/A   Clear
6:36 PM 69.3 °F - 20.1 °F 15% 29.87 in 10.0 mi WSW 5.8 mph - N/A   Clear
6:56 PM 68.4 °F - 20.1 °F 16% 29.88 in 10.0 mi WSW 4.6 mph - N/A   Clear
7:16 PM 64.6 °F - 24.3 °F 22% 29.88 in 10.0 mi WSW 5.8 mph - N/A   Clear
7:36 PM 65.8 °F - 20.1 °F 17% 29.89 in 10.0 mi West 8.1 mph - N/A   Clear
7:56 PM 63.9 °F - 22.3 °F 20% 29.89 in 10.0 mi West 4.6 mph - N/A   Clear
8:16 PM 61.5 °F - 23.7 °F 24% 29.89 in 10.0 mi West 6.9 mph - N/A   Clear
8:36 PM 63.9 °F - 21.2 °F 20% 29.89 in 10.0 mi WSW 5.8 mph - N/A   Clear
8:56 PM 59.9 °F - 24.6 °F 26% 29.90 in 10.0 mi West 5.8 mph - N/A   Clear
9:16 PM 62.2 °F - 21.9 °F 21% 29.90 in 10.0 mi West 8.1 mph - N/A   Clear
9:36 PM 59.4 °F - 23.5 °F 25% 29.90 in 10.0 mi West 4.6 mph - N/A   Clear
9:56 PM 55.8 °F - 25.5 °F 31% 29.90 in 10.0 mi Calm Calm - N/A   Clear
10:16 PM 55.8 °F - 25.7 °F 31% 29.90 in 10.0 mi Calm Calm - N/A   Clear
10:36 PM 53.1 °F - 28.9 °F 40% 29.90 in 10.0 mi Calm Calm - N/A   Clear
10:56 PM 52.2 °F - 29.3 °F 41% 29.90 in 10.0 mi South 4.6 mph - N/A   Clear
11:16 PM 53.2 °F - 28.0 °F 38% 29.90 in 10.0 mi North 5.8 mph - N/A   Clear
11:36 PM 51.6 °F - 29.7 °F 43% 29.91 in 10.0 mi Calm Calm - N/A   Clear
11:56 PM 50.9 °F - 31.5 °F 47% 29.91 in 10.0 mi Calm Calm - N/A   Scattered Clouds